User: anonymous   Login
Location: Peterborough
(44.3091°N, 78.3197°W)
Time: 17:20:32
(UTC-05:00)
Language:

Tiros 1 despin weight - Orbit

View from above orbital plane
View from above orbital plane
View from above satellite
View from above satellite

Ground track
Ground track

The orbit data is extracted from the following two-line orbital elements,

1 00115U 60002D   24061.53574289  .00004109  00000-0  45810-3 0  9996
2 00115  48.1624 234.6415 0031044 106.5716 253.8612 14.88484777392893
Epoch (UTC): 01 March 2024 12:51:28
Eccentricity: 0.0031044
inclination: 48.1624°
perigee height: 581 km
apogee height: 624 km
right ascension of ascending node: 234.6415°
argument of perigee: 106.5716°
revolutions per day: 14.88484777
mean anomaly at epoch: 253.8612°
orbit number at epoch: 39289

The dashed part of the orbit path shows where the satellite is in the earth's shadow,  

DLR